TimeEDT,TemperatureF,Dew PointF,Humidity,Sea Level PressureIn,VisibilityMPH,Wind Direction,Wind SpeedMPH,Gust SpeedMPH,PrecipitationIn,Events,Conditions,WindDirDegrees,DateUTC
12:54 AM,57.9,42.1,56,29.94,10.0,NNE,10.4,-,N/A,,Overcast,20,2011-10-28 04:54:00
1:54 AM,57.0,39.9,53,29.96,10.0,NNE,5.8,-,N/A,,Overcast,20,2011-10-28 05:54:00
2:54 AM,57.0,39.0,51,29.98,10.0,North,5.8,-,N/A,,Overcast,10,2011-10-28 06:54:00
3:54 AM,55.0,39.0,55,29.98,10.0,NNE,13.8,20.7,N/A,,Overcast,30,2011-10-28 07:54:00
4:54 AM,53.1,39.0,59,30.00,10.0,NNE,10.4,23.0,0.00,Rain,Light Rain,20,2011-10-28 08:54:00
5:54 AM,52.0,39.9,63,30.02,10.0,NE,12.7,-,0.00,,Overcast,50,2011-10-28 09:54:00
6:54 AM,51.1,39.9,66,30.05,10.0,ENE,18.4,-,N/A,,Overcast,60,2011-10-28 10:54:00
7:54 AM,46.9,41.0,80,30.08,9.0,ENE,15.0,-,0.00,Rain,Light Rain,60,2011-10-28 11:54:00
8:16 AM,46.4,41.0,81,30.10,1.5,NE,12.7,-,0.01,Rain,Heavy Rain,50,2011-10-28 12:16:00
8:45 AM,44.6,41.0,87,30.11,3.0,ENE,13.8,-,0.04,Rain,Light Rain,60,2011-10-28 12:45:00
8:54 AM,45.0,41.0,86,30.11,5.0,ENE,11.5,-,0.04,,Overcast,60,2011-10-28 12:54:00
9:36 AM,44.6,41.0,87,30.13,2.5,ENE,10.4,-,0.00,Rain,Light Rain,60,2011-10-28 13:36:00
9:54 AM,45.0,41.0,86,30.12,4.0,ENE,12.7,-,0.00,Rain,Light Rain,60,2011-10-28 13:54:00
10:54 AM,45.0,41.0,86,30.13,10.0,ENE,11.5,-,0.01,,Overcast,60,2011-10-28 14:54:00
11:24 AM,44.6,39.2,81,30.13,10.0,ENE,13.8,-,0.00,,Overcast,60,2011-10-28 15:24:00
11:54 AM,44.1,37.9,79,30.14,10.0,NE,10.4,-,0.00,,Overcast,50,2011-10-28 15:54:00
12:54 PM,44.1,36.0,73,30.14,10.0,ENE,10.4,-,0.00,,Overcast,60,2011-10-28 16:54:00
1:54 PM,43.0,36.0,76,30.12,10.0,NE,10.4,-,0.00,Rain,Light Rain,40,2011-10-28 17:54:00
2:46 PM,41.0,37.4,87,30.11,9.0,NE,10.4,-,0.00,,Overcast,50,2011-10-28 18:46:00
2:54 PM,41.0,37.0,86,30.12,2.0,NNE,9.2,17.3,0.00,,Overcast,30,2011-10-28 18:54:00
3:20 PM,41.0,37.4,87,30.10,1.5,NE,12.7,19.6,0.00,Rain,Light Rain,40,2011-10-28 19:20:00
3:42 PM,39.2,37.4,93,30.11,2.5,NE,10.4,19.6,0.01,Rain,Light Rain,40,2011-10-28 19:42:00
3:54 PM,41.0,37.0,86,30.10,2.5,NE,15.0,21.9,0.01,Rain,Light Rain,50,2011-10-28 19:54:00
4:54 PM,41.0,37.9,89,30.10,4.0,ENE,12.7,-,0.00,,Light Drizzle,60,2011-10-28 20:54:00
5:04 PM,39.2,37.4,93,30.10,2.0,ENE,10.4,-,0.00,,Light Drizzle,60,2011-10-28 21:04:00
5:54 PM,39.9,37.9,93,30.10,1.8,ENE,13.8,-,0.00,,Light Drizzle,60,2011-10-28 21:54:00
6:56 PM,39.2,37.4,93,30.11,3.0,ENE,13.8,-,0.00,Rain,Light Rain,60,2011-10-28 22:56:00
6:58 PM,39.2,37.4,93,30.11,2.0,ENE,13.8,-,0.00,Rain,Light Rain,60,2011-10-28 22:58:00
7:41 PM,39.2,37.4,93,30.09,2.5,ENE,11.5,-,0.00,,Light Drizzle,60,2011-10-28 23:41:00
7:54 PM,39.9,37.0,89,30.09,3.0,ENE,15.0,-,0.00,,Light Drizzle,60,2011-10-28 23:54:00
8:31 PM,39.2,37.4,93,30.08,5.0,ENE,15.0,-,0.00,,Overcast,60,2011-10-29 00:31:00
8:54 PM,39.9,37.0,89,30.09,5.0,ENE,11.5,-,0.00,,Overcast,60,2011-10-29 00:54:00
9:17 PM,39.2,37.4,93,30.07,2.5,NE,11.5,-,0.00,,Light Drizzle,50,2011-10-29 01:17:00
9:54 PM,39.9,37.9,93,30.08,1.8,NE,9.2,-,0.01,Rain,Light Rain,50,2011-10-29 01:54:00
10:35 PM,39.2,37.4,93,30.06,2.5,ENE,10.4,-,0.01,Rain,Light Rain,60,2011-10-29 02:35:00
10:54 PM,39.9,37.9,93,30.06,2.5,ENE,10.4,-,0.02,Rain,Light Rain,60,2011-10-29 02:54:00
11:31 PM,39.2,37.4,93,30.04,3.0,NE,6.9,-,0.02,Rain,Light Rain,40,2011-10-29 03:31:00
11:54 PM,39.9,37.0,89,30.05,4.0,NNE,8.1,-,0.04,Rain,Rain,30,2011-10-29 03:54:00